I8ZSE-10 Weather Reports


time (UTC)temp
F
wind
direction
speed
knots
gust
knots
rain 1hr
in
rain 24hr
in
rain mn
in
humidity
%
barometer
mb
20260507203508 57 159 2.6 6.1 6.29 1.28 1.26 64 1013.8
20260507202508 58 97 2.6 6.1 6.29 1.27 1.25 65 1014.0
20260507201508 57 151 2.6 6.1 6.29 1.26 1.24 67 1013.9
20260507200508 57 101 2.6 6.1 6.29 1.25 1.23 69 1013.9
20260507195508 58 170 2.6 6.1 6.29 1.24 1.22 69 1014.1
20260507194508 58 31 2.6 5.2 6.29 1.23 1.21 70 1014.1
20260507193508 58 164 2.6 5.2 6.29 1.22 1.20 72 1014.2
20260507192508 57 155 1.7 5.2 6.29 1.20 1.19 74 1014.1
20260507191508 58 140 2.6 5.2 6.29 1.19 1.18 76 1014.1
20260507190508 58 184 2.6 5.2 6.29 1.18 1.17 76 1014.0
20260507185508 58 179 2.6 6.1 6.29 1.17 1.16 76 1014.0
20260507184508 58 112 1.7 6.1 6.29 1.16 1.15 76 1013.9
20260507183508 59 188 2.6 6.1 6.29 1.15 1.14 75 1013.9
20260507182509 59 131 2.6 7.0 6.29 1.14 1.13 76 1013.9
20260507181508 59 117 2.6 7.0 6.29 1.13 1.11 77 1013.8
20260507180508 59 171 1.7 7.0 6.29 1.12 1.10 76 1013.9
20260507175508 60 168 2.6 7.8 6.29 1.11 1.09 74 1014.0
20260507174508 60 123 2.6 7.8 6.29 1.10 1.08 73 1014.1
20260507173508 61 150 2.6 8.7 6.29 1.09 1.07 72 1014.1
20260507172508 61 111 2.6 9.6 6.29 1.08 1.06 71 1014.2
20260507171508 62 128 3.5 9.6 6.29 1.07 1.05 69 1014.3
20260507170508 62 174 3.5 9.6 6.29 1.06 1.04 67 1014.3
20260507165508 62 112 4.3 9.6 6.29 1.05 1.03 66 1014.5
20260507164508 63 118 4.3 9.6 6.29 1.04 1.02 65 1014.7
20260507163508 63 118 4.3 9.6 6.29 1.03 1.01 65 1014.7
20260507162509 64 91 4.3 10.4 6.29 1.02 1.00 66 1014.8
20260507161508 65 180 4.3 9.6 6.29 1.01 9.93 66 1014.9
20260507160508 65 124 4.3 9.6 6.29 9.99 9.83 66 1015.0
20260507155508 65 104 5.2 10.4 6.29 9.89 9.72 65 1015.2
20260507154508 66 105 4.3 9.6 6.29 9.78 9.62 63 1015.3
20260507153508 66 113 5.2 9.6 6.29 9.68 9.51 62 1015.4
20260507152511 67 101 4.3 9.6 6.29 9.57 9.41 62 1015.5
20260507151508 67 107 4.3 9.6 6.29 9.47 9.30 61 1015.6
20260507150508 68 103 5.2 9.6 6.29 9.36 9.20 59 1015.7
20260507145508 68 162 5.2 9.6 6.29 9.26 9.09 60 1015.7
20260507144508 68 103 5.2 9.6 6.29 9.15 8.99 61 1015.7
20260507143508 68 163 5.2 9.6 6.29 9.05 8.88 62 1015.7
20260507142508 68 113 5.2 8.7 6.29 8.94 8.78 62 1015.8
20260507141508 68 145 5.2 8.7 6.29 8.84 8.67 64 1015.8
20260507140508 68 119 5.2 8.7 6.29 8.73 8.57 64 1015.8
20260507135508 68 117 5.2 8.7 6.29 8.63 8.47 66 1015.9
20260507134508 68 109 5.2 8.7 6.29 8.52 8.36 67 1015.9
20260507133508 68 112 5.2 7.8 6.50 8.42 8.26 67 1016.0
20260507132508 68 105 4.3 8.7 6.50 8.31 8.15 68 1016.1
20260507131508 69 118 4.3 7.8 6.50 8.21 8.05 68 1016.3
20260507130508 69 111 4.3 7.8 6.50 8.10 7.94 66 1016.4
20260507125508 69 172 4.3 7.8 6.50 8.00 7.84 65 1016.5
20260507124508 69 119 4.3 7.0 6.50 7.89 7.73 66 1016.6
20260507123508 69 116 3.5 7.0 6.29 7.77 7.60 65 1016.7
20260507122508 69 158 3.5 7.0 6.29 7.66 7.50 64 1016.7
20260507121508 69 141 3.5 6.1 6.29 7.56 7.39 64 1016.8
20260507120508 69 159 2.6 6.1 6.29 7.45 7.29 63 1016.8
20260507115508 69 146 3.5 6.1 6.29 7.35 7.18 62 1016.9
20260507114508 69 156 2.6 6.1 6.29 7.24 7.08 64 1017.0
20260507113508 68 147 2.6 6.1 6.29 7.14 6.98 65 1016.9
20260507112508 67 159 2.6 6.1 6.29 7.03 6.87 67 1017.0
20260507111509 67 28 1.7 5.2 6.29 6.93 6.77 68 1017.1
20260507110508 67 171 1.7 6.1 6.29 6.82 6.66 67 1017.1
20260507105508 68 123 1.7 6.1 6.29 6.72 6.56 66 1017.2
20260507104508 67 171 1.7 6.1 6.29 6.61 6.45 67 1017.2
20260507103508 67 143 1.7 6.1 6.50 6.51 6.35 68 1017.2
20260507102508 67 214 1.7 7.0 6.50 6.40 6.24 68 1017.2
20260507101508 66 145 1.7 6.1 6.50 6.30 6.14 73 1017.0
20260507100508 66 189 1.7 5.2 6.50 6.19 6.03 70 1017.1
20260507095508 67 121 1.7 6.1 6.71 6.09 5.93 68 1017.3
20260507094509 67 162 1.7 5.2 6.71 5.98 5.82 69 1017.2
20260507093408 66 86 2.6 5.2 6.71 5.86 5.70 69 1017.0
20260507092408 65 26 2.6 6.1 6.71 5.75 5.59 72 1016.9
20260507091408 65 176 2.6 6.1 6.71 5.65 5.49 73 1016.8
20260507090408 64 171 2.6 5.2 6.71 5.54 5.38 74 1016.5
20260507085208 63 119 1.7 5.2 6.50 5.40 5.23 76 1016.3
20260507084208 63 128 1.7 6.1 6.29 5.27 5.11 77 1016.2
20260507083208 62 155 1.7 6.1 6.50 5.17 5.00 79 1015.9
20260507082208 61 134 1.7 6.1 7.13 5.06 4.90 82 1015.8
20260507081208 61 138 1.7 6.1 7.13 4.96 4.79 83 1015.7
20260507080208 61 124 2.6 7.0 7.55 4.85 4.69 82 1015.6
20260507075208 61 173 1.7 7.0 7.76 4.75 4.58 83 1015.5
20260507074208 60 135 2.6 7.0 7.97 4.64 4.48 84 1015.5
20260507073208 59 180 2.6 7.0 7.76 4.49 4.33 85 1015.4
20260507072108 58 149 2.6 6.1 6.92 4.28 4.12 90 1015.3
20260507070808 57 173 2.6 5.2 6.71 4.16 4.00 94 1015.2
20260507065808 57 224 1.7 5.2 7.13 4.05 3.89 92 1015.6
20260507064808 57 136 1.7 4.3 7.13 3.93 3.76 92 1016.1
20260507063808 57 178 1.7 3.5 6.92 3.80 3.64 94 1016.2
20260507062808 57 137 0.9 3.5 6.92 3.70 3.53 93 1016.3
20260507061808 58 183 0.9 3.5 6.92 3.59 3.43 91 1016.4
20260507060808 58 56 0.9 2.6 7.13 3.49 3.32 92 1016.2
20260507055608 57 176 0.9 2.6 6.50 3.32 3.16 94 1016.0
20260507054608 57 134 0.9 3.5 6.29 3.19 3.03 95 1016.0
20260507053608 56 238 1.7 3.5 6.29 3.09 2.93 96 1015.9
20260507052608 56 204 1.7 3.5 6.27 2.98 2.82 97 1015.7
20260507051608 55 233 0.9 2.6 6.24 2.88 2.72 98 1015.5
20260507050608 55 181 0.9 3.5 6.20 2.77 2.61 97 1015.4
20260507045608 55 223 0.9 2.6 6.08 2.67 2.51 97 1015.5
20260507044608 55 168 0.9 3.5 5.89 2.56 2.40 96 1015.7
20260507043608 55 117 0.9 3.5 5.69 2.46 2.30 95 1015.7
20260507042608 56 129 0.9 2.6 5.51 2.36 2.19 93 1016.0
20260507041608 56 332 0.9 3.5 5.84 2.25 2.09 92 1016.0
20260507040608 56 359 0.9 2.6 5.52 2.15 1.99 93 1015.9
20260507035611 55 9 0.9 2.6 5.43 2.06 1.90 94 1015.8
20260507034608 55 220 0.9 2.6 5.41 1.97 1.81 94 1015.7
20260507033608 54 215 0.9 2.6 5.41 1.89 1.73 94 1015.4
20260507032608 54 249 0.9 1.7 5.41 1.80 1.64 95 1015.2
20260507031308 55 263 0.9 0.9 5.04 1.65 1.49 94 1015.4
20260507030208 56 208 0.9 0.9 4.99 1.57 1.40 90 1015.8
20260507025208 56 266 0.9 1.7 4.93 1.48 1.32 90 1015.6
20260507024208 56 266 0.9 0.9 4.87 1.40 1.24 91 1015.7
20260507023208 56 257 0.9 1.7 4.80 1.31 1.15 92 1015.5
20260507022208 56 263 0.9 1.7 4.74 1.23 1.07 92 1015.4
20260507021208 56 224 0.9 1.7 4.71 1.15 9.89 92 1015.5
20260507020208 56 271 0.9 1.7 4.70 1.07 9.09 92 1015.4
20260507015208 55 267 1.7 2.6 4.70 9.94 8.31 93 1015.3
20260507014208 55 274 2.6 3.5 4.69 9.16 7.52 92 1015.2
20260507013209 56 252 1.7 2.6 4.65 8.37 6.74 91 1015.2
20260507012208 55 204 1.7 2.6 4.59 7.59 5.96 94 1015.1
20260507011208 56 258 1.7 2.6 4.45 6.81 5.17 91 1015.1
20260507010208 56 235 1.7 2.6 4.21 6.02 4.39 90 1015.1
20260507005208 56 242 0.9 1.7 3.84 5.24 3.61 91 1015.1
20260507004208 56 275 1.7 2.6 3.37 4.46 2.83 91 1015.3
20260507003208 56 250 1.7 2.6 2.89 3.71 2.08 92 1015.5
20260507002208 56 263 1.7 2.6 2.41 2.99 1.36 92 1015.7
20260507001208 56 253 1.7 3.5 2.02 2.35 7.21 92 1015.7
20260507000208 56 242 1.7 3.5 1.65 1.81 1.84 91 1015.9
20260506235208 55 256 2.6 4.3 1.33 1.39 1.39 92 1015.8
20260506234208 55 250 2.6 4.3 1.05 1.09 1.09 92 1015.8
20260506233208 55 252 1.7 3.5 8.04 8.27 8.27 93 1015.7
20260506232208 55 260 1.7 3.5 5.73 5.81 5.81 93 1015.6
20260506231108 54 260 1.7 3.5 3.29 3.29 3.29 92 1015.5
20260506230008 55 250 1.7 2.6 1.34 1.34 1.34 90 1015.6
20260506225008 56 267 1.7 3.5 0.54 0.54 0.54 86 1015.7
20260506224008 56 248 1.7 2.6 0.33 0.33 0.33 84 1015.7
20260506223008 57 241 1.7 2.6 0.20 0.20 0.20 82 1015.8
20260506222008 57 209 1.7 2.6 0.06 0.06 0.06 81 1016.2
20260506221008 57 238 1.7 2.6 0.00 0.00 0.00 81 1016.3
20260506220008 57 248 1.7 2.6 0.00 0.00 0.00 82 1016.2
20260506215008 57 244 2.6 3.5 0.00 0.00 0.00 81 1016.2
20260506214008 57 265 1.7 3.5 0.00 0.00 0.00 81 1016.3
20260506213008 57 252 2.6 3.5 0.00 0.00 0.00 80 1016.3
20260506212008 57 264 1.7 3.5 0.00 0.00 0.00 80 1016.4
20260506211008 57 279 1.7 3.5 0.00 0.00 0.00 80 1016.4
20260506210008 57 271 2.6 4.3 0.00 0.00 0.00 79 1016.5
20260506205008 58 284 3.5 5.2 0.00 0.00 0.00 76 1016.7